Regional Weather Roundup
Issued by NWS Portland, ME

Home | Current Version | Previous Version | Text Only | Print | Product List | Glossary On
Versions: 1 2 3 4 5 6 7 8 9 10 11 12 13 14 15 16 17 18 19 20 21 22 23 24 25 26 27 28 29 30 31 32 33 34 35 36 37 38 39 40 41 42 43 44 45 46 47 48 49 50
000
ASUS41 KGYX 190905
RWRGYX
WEATHER ROUNDUP FOR MAINE AND NEW HAMPSHIRE
NATIONAL WEATHER SERVICE GRAY ME
400 AM EST THU JAN 19 2017

MEZ002-005-006-010-012-015-018-020-021-024-026-027-029-191000-
MAINE

CITY           SKY/WX    TMP DP  RH WIND       PRES   REMARKS
PORTLAND       LGT SNOW  25  23  92 N5        30.00F FOG
SANFORD        CLOUDY    26  25  96 N5        30.00S
BAR HARBOR     LGT SNOW  26  23  88 N5        30.00F FOG
WISCASSET      LGT SNOW  25  22  88 VRB3      30.01F FOG
ROCKLAND       LGT SNOW  29  28  96 NE6       29.99F FOG
FRYEBURG       LGT SNOW  25  23  92 CALM      29.97F FOG
LEWISTONAUBURN LGT SNOW  24  22  91 CALM      29.99F VSB 1
AUGUSTA        LGT SNOW  22  18  85 NW3       29.99F FOG
WATERVILLE     LGT SNOW  21  19  93 NW3       29.96F VSB 3/4
BANGOR         LGT SNOW  23  22  96 CALM      29.99F FOG
GREENVILLE       N/A     18  18 100 VRB3      29.87F
MILLINOCKET    LGT SNOW  20  18  92 CALM      29.98F FOG
HOULTON        LGT SNOW  20  17  88 VRB5      29.95F FOG
PRESQUE ISLE   LGT SNOW  18  15  88 S7        29.94F FOG
FRENCHVILLE    LGT SNOW  16  12  84 SE10      29.87F FOG     WCI   4
CARIBOU        LGT SNOW  18  14  84 S9        29.92F FOG
$$

NHZ002-005-008-009-011-012-014-191000-
NEW HAMPSHIRE

CITY           SKY/WX    TMP DP  RH WIND       PRES   REMARKS
PORTSMOUTH     CLOUDY    28  26  90 NW5       29.99F
ROCHESTER      CLOUDY    27  24  89 N5        29.98F
NASHUA         CLOUDY    31  30  96 CALM      30.00F
MANCHESTER     CLOUDY    30  26  85 CALM      29.98F
CONCORD        CLOUDY    29  26  89 CALM      29.98F
LACONIA        CLOUDY    27  25  92 CALM      29.97F
PLYMOUTH       CLOUDY    28  27  98 CALM      29.96F
BERLIN         CLOUDY    26  22  84 CALM      29.90F FOG
WHITEFIELD     LGT SNOW  29  25  85 CALM      29.91F FOG
JAFFREY        CLOUDY    29  27  92 CALM      29.94F
KEENE          CLOUDY    31  30  96 CALM      29.96F
LEBANON        CLOUDY    31  29  92 CALM      29.94F
MT WASHINGTON  DRFTSNOW  18  18 100 W37         N/A  VSB 1/16WCI  -4
$$

VTZ005-007-008-191000-
VERMONT

CITY           SKY/WX    TMP DP  RH WIND       PRES   REMARKS
ST JOHNSBURY     N/A     30  28  92 MISG      29.92F
MONTPELIER     CLOUDY    29  29 100 CALM      29.94F
BURLINGTON     CLOUDY    36  34  92 SW3       29.94S
$$

MAZ007-012-024-CTZ003-RIZ002-NYZ038-NYZ072-191000-
SOUTHERN NEW ENGLAND AND NY

CITY           SKY/WX    TMP DP  RH WIND       PRES   REMARKS
BOSTON         CLOUDY    32  31  96 NW6       30.00F
WORCESTER      CLOUDY    31  29  92 SW5       29.95F FOG
NANTUCKET      CLOUDY    40  38  93 N8        29.96F FOG
PROVIDENCE     CLOUDY    34  32  92 N5        30.01F
HARTFORD       CLOUDY    33  33 100 CALM      30.00F
ALBANY         CLOUDY    35  33  92 S5        29.99F FOG
NEW YORK CITY  CLOUDY    42  36  79 NW6       30.03R
$$

ANZ081-ANZ082-ANZ150-NHZ014-MEZ023>029-191000-
COASTAL MARINE OBSERVATIONS

STATION/POSITION TIME  TEMP    WIND        PRES    WAVE
                       AIR SEA DIR/SP/G            HT/PER
                 (UTC) (F)     (DEG/KT/KT) (MB)    (FT/S)
MOUNT DESERT ROC 0900   35                 1015.8R
MATINICUS ROCK   0800   37     100/  9/  9 1015.1R
ISLE OF SHOALS   0800   30     330/  7/  9 1016.0S
CASHES LEDGE BUO 0750   39 46  120/ 10/ 12 1014.5    6/ 8
GEORGES BANK BUO 0750   43 44              1010.5   10/10
$$

.............KEY..............
   WCI - WIND CHILL
   TC  - TEMPERATURE IN CELSIUS
   VSB - VISIBILITY IN MILES
   HX  - HEAT INDEX
   FAIR- INDICATES FEW OR NO CLOUDS BELOW 12,000 FT, WITH NO
         SIGNIFICANT WEATHER AND/OR OBSTRUCTIONS TO VISIBILITY.






USA.gov is the U.S. government's official web portal to all federal, state and local government web resources and services.